Time,TemperatureF,DewpointF,PressureIn,WindDirection,WindDirectionDegrees,WindSpeedMPH,WindSpeedGustMPH,Humidity,HourlyPrecipIn,Conditions,Clouds,dailyrainin,SoftwareType,DateUTC
2013-07-19 00:12:00,72.7,28.0,31.73,NW,324,11.0,16.0,19,0.00,,,0.00,weatherlink.com 1.10,2013-07-19 06:12:00,
2013-07-19 00:27:00,72.6,29.0,31.73,NW,323,8.0,13.0,20,0.00,,,0.00,weatherlink.com 1.10,2013-07-19 06:27:00,
2013-07-19 00:42:00,72.8,28.0,31.74,NNW,333,12.0,14.0,19,0.00,,,0.00,weatherlink.com 1.10,2013-07-19 06:42:00,
2013-07-19 00:57:00,72.8,27.0,31.74,NNW,340,9.0,13.0,18,0.00,,,0.00,weatherlink.com 1.10,2013-07-19 06:57:00,
2013-07-19 01:12:00,72.5,28.0,31.74,NNW,329,7.0,12.0,19,0.00,,,0.00,weatherlink.com 1.10,2013-07-19 07:12:00,
2013-07-19 01:28:00,72.0,31.0,31.74,NNW,341,6.0,11.0,22,0.00,,,0.00,weatherlink.com 1.10,2013-07-19 07:28:00,
2013-07-19 01:43:00,70.8,33.0,31.74,NNW,329,9.0,10.0,25,0.00,,,0.00,weatherlink.com 1.10,2013-07-19 07:43:00,
2013-07-19 01:58:00,71.3,34.0,31.74,NW,311,7.0,11.0,25,0.00,,,0.00,weatherlink.com 1.10,2013-07-19 07:58:00,
2013-07-19 02:13:00,70.7,35.0,31.74,North,355,4.0,7.0,27,0.00,,,0.00,weatherlink.com 1.10,2013-07-19 08:13:00,
2013-07-19 02:28:00,69.2,32.0,31.74,ESE,115,0.0,4.0,25,0.00,,,0.00,weatherlink.com 1.10,2013-07-19 08:28:00,
2013-07-19 02:43:00,68.0,32.0,31.75,North,360,2.0,4.0,26,0.00,,,0.00,weatherlink.com 1.10,2013-07-19 08:43:00,
2013-07-19 02:58:00,67.8,32.0,31.75,North,360,0.0,1.0,26,0.00,,,0.00,weatherlink.com 1.10,2013-07-19 08:58:00,
2013-07-19 03:13:00,66.8,32.0,31.75,North,360,0.0,0.0,27,0.00,,,0.00,weatherlink.com 1.10,2013-07-19 09:13:00,
2013-07-19 03:28:00,65.8,30.0,31.75,North,360,0.0,0.0,26,0.00,,,0.00,weatherlink.com 1.10,2013-07-19 09:28:00,
2013-07-19 03:43:00,65.2,29.0,31.75,NNE,19,0.0,2.0,26,0.00,,,0.00,weatherlink.com 1.10,2013-07-19 09:43:00,
2013-07-19 03:58:00,65.4,29.0,31.75,NNE,19,0.0,0.0,25,0.00,,,0.00,weatherlink.com 1.10,2013-07-19 09:58:00,
2013-07-19 04:13:00,65.2,27.0,31.75,NNE,19,0.0,1.0,24,0.00,,,0.00,weatherlink.com 1.10,2013-07-19 10:13:00,
2013-07-19 04:28:00,65.2,28.0,31.75,North,9,0.0,2.0,25,0.00,,,0.00,weatherlink.com 1.10,2013-07-19 10:28:00,
2013-07-19 04:43:00,64.3,31.0,31.75,North,9,0.0,1.0,29,0.00,,,0.00,weatherlink.com 1.10,2013-07-19 10:43:00,
2013-07-19 04:58:00,63.3,31.0,31.75,North,9,0.0,0.0,30,0.00,,,0.00,weatherlink.com 1.10,2013-07-19 10:58:00,
2013-07-19 05:13:00,62.9,31.0,31.75,ENE,57,0.0,4.0,30,0.00,,,0.00,weatherlink.com 1.10,2013-07-19 11:13:00,
2013-07-19 05:28:00,63.6,31.0,31.76,East,95,5.0,6.0,29,0.00,,,0.00,weatherlink.com 1.10,2013-07-19 11:28:00,
2013-07-19 05:43:00,64.1,30.0,31.76,ESE,121,1.0,5.0,28,0.00,,,0.00,weatherlink.com 1.10,2013-07-19 11:43:00,
2013-07-19 05:58:00,63.8,30.0,31.77,ESE,120,0.0,3.0,28,0.00,,,0.00,weatherlink.com 1.10,2013-07-19 11:58:00,
2013-07-19 06:13:00,63.1,30.0,31.77,ESE,120,1.0,3.0,29,0.00,,,0.00,weatherlink.com 1.10,2013-07-19 12:13:00,
2013-07-19 06:28:00,62.1,31.0,31.78,ESE,110,4.0,5.0,31,0.00,,,0.00,weatherlink.com 1.10,2013-07-19 12:28:00,
2013-07-19 06:43:00,61.1,31.0,31.78,ESE,102,2.0,5.0,32,0.00,,,0.00,weatherlink.com 1.10,2013-07-19 12:43:00,
2013-07-19 06:58:00,61.8,31.0,31.79,ESE,105,1.0,2.0,32,0.00,,,0.00,weatherlink.com 1.10,2013-07-19 12:58:00,
2013-07-19 07:14:00,62.5,32.0,31.79,ESE,102,1.0,4.0,32,0.00,,,0.00,weatherlink.com 1.10,2013-07-19 13:14:00,
2013-07-19 07:29:00,63.2,32.0,31.79,ESE,122,0.0,5.0,31,0.00,,,0.00,weatherlink.com 1.10,2013-07-19 13:29:00,
2013-07-19 07:44:00,63.9,33.0,31.79,ESE,122,0.0,1.0,31,0.00,,,0.00,weatherlink.com 1.10,2013-07-19 13:44:00,
2013-07-19 07:59:00,64.7,33.0,31.79,ESE,115,1.0,4.0,31,0.00,,,0.00,weatherlink.com 1.10,2013-07-19 13:59:00,
2013-07-19 08:14:00,64.8,34.0,31.79,SE,126,3.0,3.0,32,0.00,,,0.00,weatherlink.com 1.10,2013-07-19 14:14:00,
2013-07-19 08:29:00,64.5,35.0,31.79,SE,137,3.0,5.0,33,0.00,,,0.00,weatherlink.com 1.10,2013-07-19 14:29:00,
2013-07-19 08:44:00,65.3,34.0,31.79,ESE,109,2.0,4.0,31,0.00,,,0.00,weatherlink.com 1.10,2013-07-19 14:44:00,
2013-07-19 08:59:00,66.3,34.0,31.78,South,185,1.0,5.0,30,0.00,,,0.00,weatherlink.com 1.10,2013-07-19 14:59:00,
2013-07-19 09:14:00,66.9,34.0,31.78,South,169,0.0,3.0,30,0.00,,,0.00,weatherlink.com 1.10,2013-07-19 15:14:00,
2013-07-19 09:29:00,66.9,36.0,31.78,SSW,204,2.0,3.0,32,0.00,,,0.00,weatherlink.com 1.10,2013-07-19 15:29:00,
2013-07-19 09:44:00,66.8,37.0,31.77,SSW,196,1.0,4.0,33,0.00,,,0.00,weatherlink.com 1.10,2013-07-19 15:44:00,
2013-07-19 09:59:00,67.5,37.0,31.76,SSE,160,3.0,4.0,33,0.00,,,0.00,weatherlink.com 1.10,2013-07-19 15:59:00,
2013-07-19 10:14:00,68.8,37.0,31.76,SSW,213,2.0,5.0,31,0.00,,,0.00,weatherlink.com 1.10,2013-07-19 16:14:00,
2013-07-19 10:29:00,69.2,37.0,31.75,SSE,158,2.0,5.0,31,0.00,,,0.00,weatherlink.com 1.10,2013-07-19 16:29:00,
2013-07-19 10:44:00,70.4,37.0,31.75,WSW,238,3.0,5.0,30,0.00,,,0.00,weatherlink.com 1.10,2013-07-19 16:44:00,
2013-07-19 10:59:00,71.5,37.0,31.75,WNW,292,2.0,8.0,28,0.00,,,0.00,weatherlink.com 1.10,2013-07-19 16:59:00,
2013-07-19 11:14:00,71.4,37.0,31.74,West,280,8.0,11.0,28,0.00,,,0.00,weatherlink.com 1.10,2013-07-19 17:14:00,
2013-07-19 11:30:00,72.4,36.0,31.73,WNW,300,9.0,13.0,26,0.00,,,0.00,weatherlink.com 1.10,2013-07-19 17:30:00,
2013-07-19 11:45:00,72.6,36.0,31.72,West,281,8.0,13.0,26,0.00,,,0.00,weatherlink.com 1.10,2013-07-19 17:45:00,
2013-07-19 12:00:00,73.0,36.0,31.71,NE,42,5.0,15.0,26,0.00,,,0.00,weatherlink.com 1.10,2013-07-19 18:00:00,
2013-07-19 12:15:00,75.4,35.0,31.70,NNE,18,10.0,12.0,23,0.00,,,0.00,weatherlink.com 1.10,2013-07-19 18:15:00,
2013-07-19 12:30:00,74.5,34.0,31.70,WNW,285,9.0,19.0,23,0.00,,,0.00,weatherlink.com 1.10,2013-07-19 18:30:00,
2013-07-19 12:45:00,75.5,35.0,31.70,WNW,303,3.0,17.0,23,0.00,,,0.00,weatherlink.com 1.10,2013-07-19 18:45:00,
2013-07-19 13:00:00,75.1,35.0,31.69,WSW,250,0.0,18.0,23,0.00,,,0.00,weatherlink.com 1.10,2013-07-19 19:00:00,
2013-07-19 13:15:00,76.2,35.0,31.69,North,5,0.0,16.0,22,0.00,,,0.00,weatherlink.com 1.10,2013-07-19 19:15:00,
2013-07-19 13:30:00,75.8,38.0,31.68,NW,317,6.0,14.0,25,0.00,,,0.00,weatherlink.com 1.10,2013-07-19 19:30:00,
2013-07-19 13:45:00,77.6,36.0,31.67,West,278,4.0,20.0,22,0.00,,,0.00,weatherlink.com 1.10,2013-07-19 19:45:00,
2013-07-19 14:00:00,77.5,35.0,31.67,North,5,5.0,13.0,21,0.00,,,0.00,weatherlink.com 1.10,2013-07-19 20:00:00,
2013-07-19 14:15:00,78.4,35.0,31.66,South,175,8.0,13.0,21,0.00,,,0.00,weatherlink.com 1.10,2013-07-19 20:15:00,
2013-07-19 14:30:00,78.7,34.0,31.66,SSW,195,5.0,15.0,20,0.00,,,0.00,weatherlink.com 1.10,2013-07-19 20:30:00,
2013-07-19 14:45:00,79.0,33.0,31.65,East,101,7.0,13.0,19,0.00,,,0.00,weatherlink.com 1.10,2013-07-19 20:45:00,
2013-07-19 15:00:00,79.9,33.0,31.64,NNW,343,10.0,18.0,18,0.00,,,0.00,weatherlink.com 1.10,2013-07-19 21:00:00,
2013-07-19 15:15:00,79.8,34.0,31.63,WNW,290,2.0,12.0,19,0.00,,,0.00,weatherlink.com 1.10,2013-07-19 21:15:00,
2013-07-19 15:30:00,80.5,33.0,31.63,NW,321,14.0,18.0,18,0.00,,,0.00,weatherlink.com 1.10,2013-07-19 21:30:00,
2013-07-19 15:45:00,82.0,32.0,31.62,WSW,242,9.0,19.0,16,0.00,,,0.00,weatherlink.com 1.10,2013-07-19 21:45:00,
2013-07-19 16:00:00,81.5,26.0,31.61,NW,318,24.0,33.0,13,0.00,,,0.00,weatherlink.com 1.10,2013-07-19 22:00:00,
2013-07-19 16:15:00,82.0,26.0,31.61,WNW,302,20.0,27.0,13,0.00,,,0.00,weatherlink.com 1.10,2013-07-19 22:15:00,
2013-07-19 16:30:00,81.9,26.0,31.61,West,266,23.0,32.0,13,0.00,,,0.00,weatherlink.com 1.10,2013-07-19 22:30:00,
2013-07-19 16:45:00,82.7,25.0,31.60,West,267,26.0,34.0,12,0.00,,,0.00,weatherlink.com 1.10,2013-07-19 22:45:00,
2013-07-19 17:00:00,82.0,26.0,31.61,WNW,300,28.0,34.0,13,0.00,,,0.00,weatherlink.com 1.10,2013-07-19 23:00:00,
2013-07-19 17:15:00,82.1,25.0,31.60,NW,315,19.0,31.0,12,0.00,,,0.00,weatherlink.com 1.10,2013-07-19 23:15:00,
2013-07-19 17:31:00,81.9,26.0,31.59,NW,309,27.0,35.0,13,0.00,,,0.00,weatherlink.com 1.10,2013-07-19 23:31:00,
2013-07-19 17:46:00,82.1,27.0,31.59,WNW,289,9.0,31.0,13,0.00,,,0.00,weatherlink.com 1.10,2013-07-19 23:46:00,
2013-07-19 18:01:00,82.3,25.0,31.59,WNW,302,30.0,34.0,12,0.00,,,0.00,weatherlink.com 1.10,2013-07-20 00:01:00,
2013-07-19 18:16:00,82.6,25.0,31.59,West,265,13.0,31.0,12,0.00,,,0.00,weatherlink.com 1.10,2013-07-20 00:16:00,
2013-07-19 18:31:00,82.0,22.0,31.59,NW,304,28.0,34.0,11,0.00,,,0.00,weatherlink.com 1.10,2013-07-20 00:31:00,
2013-07-19 18:46:00,81.8,22.0,31.58,WNW,292,15.0,31.0,11,0.00,,,0.00,weatherlink.com 1.10,2013-07-20 00:46:00,
2013-07-19 19:01:00,81.2,22.0,31.58,West,277,23.0,33.0,11,0.00,,,0.00,weatherlink.com 1.10,2013-07-20 01:01:00,
2013-07-19 19:16:00,81.4,22.0,31.58,NW,304,22.0,28.0,11,0.00,,,0.00,weatherlink.com 1.10,2013-07-20 01:16:00,
2013-07-19 19:31:00,81.1,24.0,31.58,NW,315,21.0,28.0,12,0.00,,,0.00,weatherlink.com 1.10,2013-07-20 01:31:00,
2013-07-19 19:46:00,81.0,22.0,31.58,WNW,285,15.0,26.0,11,0.00,,,0.00,weatherlink.com 1.10,2013-07-20 01:46:00,
2013-07-19 20:01:00,80.5,23.0,31.58,WNW,302,18.0,27.0,12,0.00,,,0.00,weatherlink.com 1.10,2013-07-20 02:01:00,
2013-07-19 20:16:00,80.2,23.0,31.59,WSW,256,10.0,23.0,12,0.00,,,0.00,weatherlink.com 1.10,2013-07-20 02:16:00,
2013-07-19 20:31:00,79.8,26.0,31.58,West,281,8.0,17.0,14,0.00,,,0.00,weatherlink.com 1.10,2013-07-20 02:31:00,
2013-07-19 20:46:00,78.8,26.0,31.58,West,272,11.0,16.0,14,0.00,,,0.00,weatherlink.com 1.10,2013-07-20 02:46:00,
2013-07-19 21:01:00,77.9,25.0,31.58,WNW,299,8.0,15.0,14,0.00,,,0.00,weatherlink.com 1.10,2013-07-20 03:01:00,
2013-07-19 21:16:00,76.9,26.0,31.58,NW,306,7.0,11.0,15,0.00,,,0.00,weatherlink.com 1.10,2013-07-20 03:16:00,
2013-07-19 21:31:00,76.3,25.0,31.59,NNW,329,9.0,11.0,15,0.00,,,0.00,weatherlink.com 1.10,2013-07-20 03:31:00,
2013-07-19 21:46:00,76.7,27.0,31.59,WNW,298,7.0,13.0,16,0.00,,,0.00,weatherlink.com 1.10,2013-07-20 03:46:00,
2013-07-19 22:01:00,76.7,26.0,31.60,WNW,301,9.0,18.0,15,0.00,,,0.00,weatherlink.com 1.10,2013-07-20 04:01:00,
2013-07-19 22:16:00,76.2,32.0,31.60,WNW,302,14.0,18.0,20,0.00,,,0.00,weatherlink.com 1.10,2013-07-20 04:16:00,
2013-07-19 22:31:00,75.5,29.0,31.61,NW,317,11.0,17.0,18,0.00,,,0.00,weatherlink.com 1.10,2013-07-20 04:31:00,
2013-07-19 22:46:00,75.6,26.0,31.61,WNW,303,12.0,21.0,16,0.00,,,0.00,weatherlink.com 1.10,2013-07-20 04:46:00,
2013-07-19 23:01:00,74.6,27.0,31.61,NNW,329,13.0,20.0,17,0.00,,,0.00,weatherlink.com 1.10,2013-07-20 05:01:00,
2013-07-19 23:16:00,74.3,27.0,31.61,NNW,335,12.0,23.0,17,0.00,,,0.00,weatherlink.com 1.10,2013-07-20 05:16:00,
2013-07-19 23:31:00,73.1,27.0,31.62,WNW,302,12.0,17.0,18,0.00,,,0.00,weatherlink.com 1.10,2013-07-20 05:31:00,
2013-07-19 23:46:00,73.0,27.0,31.62,NW,311,9.0,22.0,18,0.00,,,0.00,weatherlink.com 1.10,2013-07-20 05:46:00,